Voltar ao catálogo

SL-16 R/B

AtivoSSO
NORAD 23343·ROCKET BODY·🇷🇺 Russia

Lançado Nov 4, 1994 de Baikonur Cosmodrome

Loading…

Próximas Passagens (próximas 24 horas)

TLE

AtualizadoSource: Space-Track

Época: Sep 14, 2026, 13:46 UTC

1 23343U 94074B   26257.57406734  .00000277  00000-0  43545-4 0  9998
2 23343  97.6961 280.5575 0005869 338.4489 187.4414 14.79565361715171

Acompanhe SL-16 R/B em tempo real com AllMySat

Download on the App Store